Regional Weather Roundup
Issued by NWS

Home | Current Version | Previous Version | Graphics & Text | Print | Product List | Glossary On
Versions: 1 2 3 4 5 6 7 8 9 10 11 12 13 14 15 16 17 18 19 20 21 22 23 24 25 26 27 28 29 30 31 32 33 34 35 36 37 38 39 40 41 42 43 44 45 46 47 48 49 50
000
ASUS43 KMKX 011821
RWRWI

WISCONSIN REGIONAL WEATHER ROUNDUP
NATIONAL WEATHER SERVICE MILWAUKEE/SULLIVAN WI
100 PM CDT SAT OCT 01 2016

NOTE: "FAIR" INDICATES FEW OR NO CLOUDS BELOW 12,000 FEET WITH NO
SIGNIFICANT WEATHER AND/OR OBSTRUCTIONS TO VISIBILITY.

WIZ001-002-006>008-014>016-023>028-011900-
NORTHWEST WISCONSIN

CITY           SKY/WX    TMP DP  RH WIND       PRES   REMARKS
SUPERIOR ARPT  SUNNY     61  54  78 NE9G16    30.19F
6HR MIN TEMP:  52; 6HR MAX TEMP:  61;

ASHLAND        CLOUDY    61  56  83 NE9       30.19F
6HR MIN TEMP:  54; 6HR MAX TEMP:  61;

HAYWARD        CLOUDY    66  50  56 NE8       30.17F
6HR MIN TEMP:  50; 6HR MAX TEMP:  66;

SIREN          SUNNY     66  53  61 NE8       30.15F
6HR MIN TEMP:  51; 6HR MAX TEMP:  66;

CUMBERLAND     PTSUNNY   66  52  59 E6        30.15F
RICE LAKE      PTSUNNY   68  52  56 NE5       30.16F
6HR MIN TEMP:  50; 6HR MAX TEMP:  68;

CHETEK         NOT AVBL
LADYSMITH      CLOUDY    65  52  63 NE3       30.17F
6HR MIN TEMP:  51; 6HR MAX TEMP:  65;

EAU CLAIRE     PTSUNNY   67  52  58 NE9       30.12F
6HR MIN TEMP:  50; 6HR MAX TEMP:  68;

MENOMONIE      MOSUNNY   70  52  52 NE8       30.13F
6HR MIN TEMP:  51; 6HR MAX TEMP:  70;

NEW RICHMOND   MOSUNNY   68  54  59 NE7       30.14F
6HR MIN TEMP:  47; 6HR MAX TEMP:  70;

OSCEOLA        SUNNY     69  55  60 NE3       30.16F
6HR MIN TEMP:  47; 6HR MAX TEMP:  70;

$$

WIZ003>005-009-010-017-018-011900-
NORTH CENTRAL WISCONSIN

CITY           SKY/WX    TMP DP  RH WIND       PRES   REMARKS
MANITOWISH WTR NOT AVBL
ARBOR VITAE    CLOUDY    63  55  75 N6        30.16F
6HR MIN TEMP:  52; 6HR MAX TEMP:  63;

WOODRUFF       CLOUDY    63  55  75 N6        30.16F
6HR MIN TEMP:  52; 6HR MAX TEMP:  63;

RHINELANDER    CLOUDY    64  52  64 VRB5      30.15F
6HR MIN TEMP:  52; 6HR MAX TEMP:  64; 6HR PCP: TRACE;

EAGLE RIVER    CLOUDY    62  46  55 NE7       30.15F
6HR MIN TEMP:  52; 6HR MAX TEMP:  62;

LAND O LAKES   CLOUDY    62  50  64 N6        30.18F
6HR MIN TEMP:  53; 6HR MAX TEMP:  63;

PHILLIPS       MOSUNNY   62  52  67 N3        30.16F
6HR MIN TEMP:  51; 6HR MAX TEMP:  64;

TOMAHAWK       CLOUDY    61  50  66 N7        30.15F
6HR MIN TEMP:  47; 6HR MAX TEMP:  61;

MEDFORD        CLOUDY    62  52  70 NE7       30.13F
6HR MIN TEMP:  51; 6HR MAX TEMP:  62;

MERRILL        CLOUDY    64  50  61 NE12G18   30.13F
6HR MIN TEMP:  52; 6HR MAX TEMP:  64;

$$

WIZ029-030-035-036-043>047-011900-
CENTRAL WISCONSIN

CITY           SKY/WX    TMP DP  RH WIND       PRES   REMARKS
WAUSAU         CLOUDY    65  48  54 E14       30.11F
6HR MIN TEMP:  55; 6HR MAX TEMP:  66; 6HR PCP: TRACE;

MOSINEE        MOSUNNY   64  54  68 NE7       30.12F
MARSHFIELD     CLOUDY    66  52  60 NE10      30.11F
6HR MIN TEMP:  56; 6HR MAX TEMP:  67; 6HR PCP: TRACE;

STEVENS POINT  PTSUNNY   64  48  57 NE15G22   30.11S
6HR MIN TEMP:  55; 6HR MAX TEMP:  65;

WAUPACA        CLOUDY    65  55  70 NE8       30.10S
6HR MIN TEMP:  59; 6HR MAX TEMP:  67;

WAUTOMA        CLOUDY    66  55  67 NE9G17    30.08F
6HR MIN TEMP:  58; 6HR MAX TEMP:  67; 6HR PCP: TRACE;

WISC RAPIDS    CLOUDY    69  52  54 E10       30.11F
6HR MIN TEMP:  58; 6HR MAX TEMP:  69;

CAMP DOUGLAS   PTSUNNY   63  55  77 NE12      30.09F
                                      6HR PCP: TRACE;

$$

WIZ011>013-019>022-031-037>040-048>050-011900-
NORTHEAST WISCONSIN

CITY           SKY/WX    TMP DP  RH WIND       PRES   REMARKS
ANTIGO         PTSUNNY   62  50  66 NE9       30.14F
6HR MIN TEMP:  53; 6HR MAX TEMP:  62;

SHAWANO        RAIN      63  56  80 NE9       30.11F
6HR MIN TEMP:  58; 6HR MAX TEMP:  65; 6HR PCP:  0.01;

OCONTO         NOT AVBL
STURGEON BAY   CLOUDY    59  57  93 NE8       30.10F
6HR MIN TEMP:  57; 6HR MAX TEMP:  63;

GREEN BAY      CLOUDY    62  57  83 NE20      30.08F
6HR MIN TEMP:  60; 6HR MAX TEMP:  66;

MANITOWOC      CLOUDY    61  56  83 NE8       30.07F
6HR MIN TEMP:  58; 6HR MAX TEMP:  61;

APPLETON       PTSUNNY   63  52  67 NE14G23   30.07S
CLINTONVILLE   CLOUDY    63  54  72 NE10      30.10F
OSHKOSH        CLOUDY    62  56  80 NE7       30.07S
6HR MIN TEMP:  58; 6HR MAX TEMP:  64; 6HR PCP:  0.01;

$$

WIZ032>034-041-042-053>061-011900-
SOUTHWEST WISCONSIN

CITY           SKY/WX    TMP DP  RH WIND       PRES   REMARKS
LA CROSSE      PTSUNNY   69  56  62 E7        30.08F
6HR MIN TEMP:  60; 6HR MAX TEMP:  69;

SPARTA         CLOUDY    65  54  68 NE10      30.10S
6HR MIN TEMP:  56; 6HR MAX TEMP:  65;

VIROQUA        CLOUDY    60  56  85 NE7       30.10S
6HR MIN TEMP:  56; 6HR MAX TEMP:  60;

BOSCOBEL       CLOUDY    64  57  78 NE8       30.08S
6HR MIN TEMP:  60; 6HR MAX TEMP:  64;

PRAIRIE DU CHI CLOUDY    64  56  74 N6        30.06F
6HR MIN TEMP:  59; 6HR MAX TEMP:  65;

PLATTEVILLE    CLOUDY    62  61  96 NE9       30.06F
6HR MIN TEMP:  59; 6HR MAX TEMP:  63;

$$

WIZ056-057-062-063-064-067-068-011900-
SOUTH CENTRAL WISCONSIN

CITY           SKY/WX    TMP DP  RH WIND       PRES   REMARKS
REEDSBURG      NOT AVBL
BARABOO/DELLS  CLOUDY    59  57  93 NE8       30.08F
6HR MIN TEMP:  57; 6HR MAX TEMP:  59; 6HR PCP:  0.01;

LONE ROCK      CLOUDY    63  58  83 NE10      30.07F
6HR MIN TEMP:  60; 6HR MAX TEMP:  64; 6HR PCP: TRACE;

MINERAL POINT  CLOUDY    63  61  94 N7        30.07S
MADISON        DRIZZLE   61  59  93 NE10      30.05F
6HR MIN TEMP:  59; 6HR MAX TEMP:  62; 6HR PCP: TRACE;

MIDDLETON      CLOUDY    63  60  90 NE3       30.06F
6HR MIN TEMP:  60; 6HR MAX TEMP:  63;

WATERTOWN      CLOUDY    58  58 100 NE3       30.05F
6HR MIN TEMP:  58; 6HR MAX TEMP:  61; 6HR PCP:  0.01;

MONROE         CLOUDY    61  57  88 N13       30.05S
JANESVILLE     CLOUDY    63  61  94 N9        30.03F
$$

WIZ051-052-058>065-066-070>072-011900-
SOUTHEAST WISCONSIN

CITY           SKY/WX    TMP DP  RH WIND       PRES   REMARKS
MILWAUKEE      LGT RAIN  61  58  90 N9        30.03F VSB 1
6HR MIN TEMP:  59; 6HR MAX TEMP:  61; 6HR PCP:  0.09;

WAUKESHA       NOT AVBL
MILWAUKEE/TIMM CLOUDY    57  55  94 N7        30.06S FOG
RACINE         LGT RAIN  60  58  92 N9        30.03F
6HR MIN TEMP:  60; 6HR MAX TEMP:  61; 6HR PCP:  0.12;

BURLINGTON     CLOUDY    58  57  94 N6        30.03F
6HR MIN TEMP:  56; 6HR MAX TEMP:  58;

KENOSHA        LGT RAIN  61  59  93 N8        30.02F FOG
6HR MIN TEMP:  60; 6HR MAX TEMP:  62; 6HR PCP:  0.08;

FOND DU LAC    CLOUDY    61  58  90 NE12      30.07F
6HR MIN TEMP:  59; 6HR MAX TEMP:  61; 6HR PCP: TRACE;

SHEBOYGAN      LGT RAIN  60  57  89 NE8       30.05F FOG
6HR MIN TEMP:  58; 6HR MAX TEMP:  60; 6HR PCP: TRACE;

WEST BEND      DRIZZLE   68  68 100 N6        30.05S
JUNEAU         CLOUDY    59  57  94 NE7       30.07S
6HR MIN TEMP:  57; 6HR MAX TEMP:  59;

$$

LSZ147-162-011900-
LAKE SUPERIOR

STATION/POSITION TIME  TEMP    WIND        PRES    WAVE
                       AIR SEA DIR/SP/G            HT/PER
                 (UTC) (F)     (DEG/KT/KT) (MB)    (FT/S)
W MID LAKE BUOY  1750   57 56   40/  8/ 10 1022.2F   1/ 3
DEVILS ISLAND    1800   54      50/ 10/ 11 1022.7F
SAXON HARBOR     1740   56     350/  5/  7 1022.4F
$$

LMZ867-665-643>646-011900-
LAKE MICHIGAN

STATION/POSITION TIME  TEMP    WIND        PRES    WAVE
                       AIR SEA DIR/SP/G            HT/PER
                 (UTC) (F)     (DEG/KT/KT) (MB)    (FT/S)
CHAMBERS ISLAND  1700   60      50/  9/ 12 1019.6F
S GREEN BAY BUOY 1700   58 62   60/ 21/ 27 1018.9F
N MID LAKE BUOY  1750   60 64   90/ 16/ 19 1019.0F   4/ 5
NORTHPORT PIER   C1F1C2F2C3F3C4F4C5F5C6F6C7F7C8M1C9M2Ca!


USA.gov is the U.S. government's official web portal to all federal, state and local government web resources and services.